EW5925 Capalaba AU current weather conditions

sailwx.info

Wind from 008 at 3 knots gusting 8

Air temperature 27.2° C
Dewpoint 25.2° C

Last reported at 2020-Jan-22 14:05 UTC.
Time now 2020-Jan-22 14:24 UTC

Location: S 27°33' E 153°12'.
View on Google Maps.

See reports from other nearby stations

  
Tides and Currents Weather Stations Pressure Air Temp Water Temp Dewpoint Dewpoint Depression Visibility Wind Speed Wind Dir Waves Ship Positions
date/time (UTC)wind fromknots sea level pressurealtimeterstation pressurevisibilityair tempwater tempwave heightnotes
2020-Jan-22 14:05 008 3 gusting 8 27.2
2020-Jan-22 14:00 004 3 gusting 10 27.2
2020-Jan-22 13:55 045 3 gusting 10 27.2
2020-Jan-22 13:50 349 3 gusting 9 27.2
2020-Jan-22 13:45 018 4 gusting 8 27.2
2020-Jan-22 13:39 010 3 gusting 13 27.2
2020-Jan-22 13:34 018 3 gusting 12 27.2
2020-Jan-22 13:28 005 3 gusting 12 27.2
2020-Jan-22 13:23 322 4 gusting 10 27.2
2020-Jan-22 13:17 040 4 gusting 10 27.2
2020-Jan-22 13:12 029 3 gusting 14 27.2
2020-Jan-22 13:06 063 3 gusting 9 27.2
2020-Jan-22 13:01 037 5 gusting 11 27.2
2020-Jan-22 12:56 353 6 gusting 11 27.2
2020-Jan-22 12:50 014 6 gusting 13 27.2
2020-Jan-22 12:45 010 5 gusting 13 27.2
2020-Jan-22 12:40 007 3 gusting 10 27.2
2020-Jan-22 12:35 020 4 gusting 8 27.2
2020-Jan-22 12:30 016 4 gusting 13 27.2
2020-Jan-22 12:25 353 5 gusting 13 27.2
2020-Jan-22 12:20 337 4 gusting 11 27.2
2020-Jan-22 12:10 012 5 gusting 12 27.2
2020-Jan-22 12:05 325 4 gusting 12 27.2
2020-Jan-22 12:00 328 3 gusting 8 27.2
2020-Jan-22 11:55 027 3 gusting 8 27.8
2020-Jan-22 11:50 008 4 gusting 8 27.8
2020-Jan-22 11:45 320 4 gusting 13 27.8
2020-Jan-22 11:40 020 4 gusting 13 27.8
2020-Jan-22 11:35 006 3 gusting 9 27.8
2020-Jan-22 11:30 056 3 gusting 9 27.8
2020-Jan-22 11:24 343 3 gusting 8 27.8
2020-Jan-22 11:19 006 3 gusting 8 27.8
2020-Jan-22 11:14 353 4 gusting 13 27.8
2020-Jan-22 11:09 016 4 gusting 13 27.8
2020-Jan-22 11:04 016 4 gusting 11 27.2
2020-Jan-22 10:59 022 4 gusting 11 27.2
2020-Jan-22 10:54 037 3 gusting 12 27.8
2020-Jan-22 10:49 038 3 gusting 12 27.8
2020-Jan-22 10:44 002 3 gusting 12 27.8
2020-Jan-22 10:39 005 3 gusting 12 27.8
2020-Jan-22 10:34 058 2 gusting 12 27.8
2020-Jan-22 10:29 048 3 gusting 12 27.8
2020-Jan-22 10:24 341 3 gusting 10 27.8
2020-Jan-22 10:19 015 4 gusting 10 27.8
2020-Jan-22 10:14 334 3 gusting 10 27.8
2020-Jan-22 10:08 027 2 gusting 8 27.8
2020-Jan-22 10:03 018 2 gusting 8 27.8
2020-Jan-22 09:58 007 3 gusting 11 27.8
2020-Jan-22 09:53 230 4 gusting 11 27.8
2020-Jan-22 09:48 009 3 gusting 10 27.8
2020-Jan-22 09:43 002 3 gusting 10 27.8
2020-Jan-22 09:38 337 3 gusting 8 27.8
2020-Jan-22 09:33 357 3 gusting 8 27.8
2020-Jan-22 09:28 344 3 gusting 8 27.8
2020-Jan-22 09:18 033 2 gusting 7 27.8
2020-Jan-22 09:13 038 2 gusting 7 28.3
2020-Jan-22 09:08 016 2 gusting 9 28.3
2020-Jan-22 09:03 322 3 gusting 9 28.3
2020-Jan-22 08:58 307 3 gusting 8 28.3
2020-Jan-22 08:53 330 3 gusting 11 28.3
2020-Jan-22 08:48 314 3 gusting 12 28.3
2020-Jan-22 08:43 008 4 gusting 12 28.3
2020-Jan-22 08:38 301 3 gusting 9 28.3
2020-Jan-22 08:33 325 3 gusting 10 28.3
2020-Jan-22 08:28 007 3 gusting 10 28.3
2020-Jan-22 08:23 322 3 gusting 9 28.3
2020-Jan-22 08:17 015 2 gusting 9 28.9
2020-Jan-22 08:12 310 0 gusting 5 28.9
2020-Jan-22 08:07 070 1 gusting 5 28.9
2020-Jan-22 08:02 008 1 gusting 5 28.9
2020-Jan-22 07:57 045 1 gusting 6 28.9
2020-Jan-22 07:52 024 1 gusting 6 29.4
2020-Jan-22 07:47 339 0 gusting 5 29.4
2020-Jan-22 07:42 053 1 gusting 8 29.4
2020-Jan-22 07:37 039 2 gusting 8 29.4
2020-Jan-22 07:32 067 1 gusting 5 29.4
2020-Jan-22 07:27 041 1 gusting 5 29.4
2020-Jan-22 07:22 041 1 gusting 7 30.0
2020-Jan-22 07:17 019 1 gusting 8 30.0
2020-Jan-22 07:12 017 1 gusting 8 30.0
2020-Jan-22 07:06 034 1 gusting 6 30.0
2020-Jan-22 07:01 006 2 gusting 8 30.0
2020-Jan-22 06:56 058 2 gusting 8 30.6
2020-Jan-22 06:51 001 2 gusting 6 30.6
2020-Jan-22 06:46 049 2 gusting 8 30.6
2020-Jan-22 06:40 036 3 gusting 8 30.6
2020-Jan-22 06:35 047 3 gusting 10 31.1
2020-Jan-22 06:30 033 2 gusting 10 31.1
2020-Jan-22 06:25 043 1 gusting 8 31.1
2020-Jan-22 06:20 060 2 gusting 8 30.6
2020-Jan-22 06:15 089 2 gusting 6 30.6
2020-Jan-22 06:10 053 2 gusting 6 30.6
2020-Jan-22 06:05 033 2 gusting 7 31.1
2020-Jan-22 06:00 020 2 gusting 7 31.1
2020-Jan-22 05:55 033 3 gusting 7 31.1
2020-Jan-22 05:50 030 3 gusting 8 31.7
2020-Jan-22 05:45 039 3 gusting 9 31.7
2020-Jan-22 05:40 344 3 gusting 9 32.2
2020-Jan-22 05:35 013 3 gusting 10 32.2
2020-Jan-22 05:30 003 3 gusting 12 32.8
2020-Jan-22 05:25 355 3 gusting 12 32.8
2020-Jan-22 05:20 352 4 gusting 8 33.3
2020-Jan-22 05:15 003 3 gusting 7 33.3
2020-Jan-22 05:10 041 2 gusting 7 33.3
2020-Jan-22 05:04 017 3 gusting 7 33.3
2020-Jan-22 04:59 054 3 gusting 7 33.3
2020-Jan-22 04:54 048 4 gusting 12 33.3
2020-Jan-22 04:49 025 4 gusting 12 33.3
2020-Jan-22 04:44 058 3 gusting 9 33.3
2020-Jan-22 04:39 017 3 gusting 9 33.9
2020-Jan-22 04:34 040 4 gusting 9 33.9
2020-Jan-22 04:29 002 4 gusting 8 33.9
2020-Jan-22 04:24 025 3 gusting 7 33.3
2020-Jan-22 04:19 357 3 gusting 7 33.3
2020-Jan-22 04:14 033 3 gusting 8 33.3
2020-Jan-22 04:09 339 4 gusting 10 33.3
2020-Jan-22 04:04 056 4 gusting 10 33.3
2020-Jan-22 03:59 060 3 gusting 9 33.3
2020-Jan-22 03:54 352 4 gusting 9 33.3
2020-Jan-22 03:49 014 3 gusting 8 33.9
2020-Jan-22 03:44 022 3 gusting 7 33.9
2020-Jan-22 03:38 023 3 gusting 7 33.9
2020-Jan-22 03:33 319 3 gusting 8 33.9
2020-Jan-22 03:28 041 3 gusting 10 33.9
2020-Jan-22 03:22 011 3 gusting 10 33.9
2020-Jan-22 03:17 060 3 gusting 6 33.9
2020-Jan-22 03:11 019 3 gusting 8 33.9
2020-Jan-22 03:06 354 3 gusting 7 33.9
2020-Jan-22 03:00 351 4 gusting 11 33.9
2020-Jan-22 02:55 015 4 gusting 11 33.9
2020-Jan-22 02:49 331 4 gusting 9 33.9
2020-Jan-22 02:44 018 4 gusting 7 33.9
2020-Jan-22 02:38 008 4 gusting 8 33.9
2020-Jan-22 02:33 353 3 gusting 8 33.9
2020-Jan-22 02:27 351 3 gusting 8 33.9
2020-Jan-22 02:22 026 3 gusting 10 33.9
2020-Jan-22 02:17 330 3 gusting 10 33.9
2020-Jan-22 02:11 341 3 gusting 9 33.9
2020-Jan-22 02:06 017 4 gusting 9 33.9
2020-Jan-22 02:00 058 3 gusting 7 33.9
2020-Jan-22 01:55 278 2 gusting 7 33.9
2020-Jan-22 01:50 022 2 gusting 6 33.9
2020-Jan-22 01:45 044 2 gusting 6 33.9
2020-Jan-22 01:39 062 2 gusting 8 33.9
2020-Jan-22 01:34 355 3 gusting 8 33.9
2020-Jan-22 01:28 028 3 gusting 8 33.9
2020-Jan-22 01:23 013 3 gusting 6 33.9
2020-Jan-22 01:18 027 2 gusting 9 33.9
2020-Jan-22 01:12 358 2 gusting 7 33.3
2020-Jan-22 01:07 003 2 gusting 6 33.3
2020-Jan-22 01:01 029 3 gusting 6 33.3
2020-Jan-22 00:56 338 3 gusting 6 33.3
2020-Jan-22 00:50 049 2 gusting 6 33.3
2020-Jan-22 00:45 040 2 gusting 6 33.3
2020-Jan-22 00:39 034 2 gusting 6 33.3
2020-Jan-22 00:34 058 2 gusting 6 33.3
2020-Jan-22 00:28 013 2 gusting 6 33.3
2020-Jan-22 00:23 020 2 gusting 6 33.3
2020-Jan-22 00:18 011 2 gusting 6 33.3
2020-Jan-22 00:13 337 2 gusting 6 32.8
2020-Jan-22 00:08 012 1 gusting 5 32.8
2020-Jan-22 00:03 028 1 gusting 5 32.8
2020-Jan-21 23:58 010 2 gusting 5 32.2
2020-Jan-21 23:53 040 2 gusting 6 32.2
2020-Jan-21 23:48 009 1 gusting 6 32.2
2020-Jan-21 23:43 032 1 gusting 5 31.7
2020-Jan-21 23:38 001 2 gusting 6 31.7
2020-Jan-21 23:33 014 2 gusting 6 31.7
2020-Jan-21 23:28 023 2 gusting 6 31.1
2020-Jan-21 23:23 016 3 gusting 6 31.1
2020-Jan-21 23:18 346 3 gusting 8 30.6
2020-Jan-21 23:12 008 3 gusting 8 30.6
2020-Jan-21 23:07 351 3 gusting 7 30.6
2020-Jan-21 23:02 018 3 gusting 7 30.6
2020-Jan-21 22:57 355 3 gusting 7 30.6
2020-Jan-21 22:52 027 3 gusting 9 30.0
2020-Jan-21 22:47 012 4 gusting 9 30.0
2020-Jan-21 22:42 347 3 gusting 8 30.0
2020-Jan-21 22:37 026 2 gusting 7 30.0
2020-Jan-21 22:32 043 3 gusting 7 29.4
2020-Jan-21 22:27 003 3 gusting 6 29.4
2020-Jan-21 22:22 039 2 gusting 7 29.4
2020-Jan-21 22:17 346 2 gusting 7 28.9
2020-Jan-21 22:12 353 3 gusting 9 28.9
2020-Jan-21 22:07 005 4 gusting 9 28.9
2020-Jan-21 22:02 346 3 gusting 8 28.3
2020-Jan-21 21:57 343 2 gusting 7 28.3
2020-Jan-21 21:52 359 2 gusting 7 27.8
2020-Jan-21 21:47 330 1 gusting 7 27.8
2020-Jan-21 21:42 343 1 gusting 4 27.2
2020-Jan-21 21:37 008 2 gusting 6 26.7
2020-Jan-21 21:32 334 1 gusting 6 26.7
2020-Jan-21 21:27 018 0 gusting 4 26.1
2020-Jan-21 21:22 322 25.6
2020-Jan-21 21:17 327 25.0
2020-Jan-21 21:12 327 24.4
2020-Jan-21 21:07 327 24.4
2020-Jan-21 21:02 329 23.9
2020-Jan-21 20:57 324 0 gusting 1 23.9
2020-Jan-21 20:52 324 0 gusting 2 23.9
2020-Jan-21 20:47 325 0 gusting 2 23.3
2020-Jan-21 20:42 253 23.3
2020-Jan-21 20:37 175 22.8
2020-Jan-21 20:32 175 22.8
2020-Jan-21 20:27 175 22.8
2020-Jan-21 20:22 175 22.8
2020-Jan-21 20:17 175 22.2
2020-Jan-21 20:12 175 22.2
2020-Jan-21 20:06 175 22.2
2020-Jan-21 20:01 175 22.2
2020-Jan-21 19:56 175 22.2
2020-Jan-21 19:51 175 22.2
2020-Jan-21 19:46 175 22.2
2020-Jan-21 19:41 175 22.2
2020-Jan-21 19:36 175 22.2
2020-Jan-21 19:31 175 22.2
2020-Jan-21 19:26 175 22.2
2020-Jan-21 19:21 175 22.2
2020-Jan-21 19:16 175 22.2
2020-Jan-21 19:11 175 22.2
2020-Jan-21 19:06 175 22.2
2020-Jan-21 19:01 175 22.2
2020-Jan-21 18:56 175 22.8
2020-Jan-21 18:51 175 22.8
2020-Jan-21 18:46 175 22.8
2020-Jan-21 18:40 175 22.8
2020-Jan-21 18:35 175 22.8
2020-Jan-21 18:30 175 22.8
2020-Jan-21 18:25 175 22.8
2020-Jan-21 18:20 175 22.8
2020-Jan-21 18:15 175 22.8
2020-Jan-21 18:10 175 22.8
2020-Jan-21 18:05 175 23.3
2020-Jan-21 18:00 175 23.3
2020-Jan-21 17:55 175 23.3
2020-Jan-21 17:50 175 23.3
2020-Jan-21 17:48 175 23.3
2020-Jan-21 17:40 175 23.3
2020-Jan-21 17:35 175 23.3
2020-Jan-21 17:30 175 23.3
2020-Jan-21 17:25 175 23.3
2020-Jan-21 17:20 175 23.9
2020-Jan-21 17:14 175 23.9
2020-Jan-21 17:09 175 23.9
2020-Jan-21 17:04 175 23.9
2020-Jan-21 16:59 175 23.9
2020-Jan-21 16:54 175 23.9
2020-Jan-21 16:48 175 23.9
2020-Jan-21 16:43 175 23.9
2020-Jan-21 16:37 175 24.4
2020-Jan-21 16:32 175 24.4
2020-Jan-21 16:27 175 24.4
2020-Jan-21 16:22 175 24.4
2020-Jan-21 16:16 175 24.4
2020-Jan-21 16:11 175 24.4
2020-Jan-21 16:05 175 24.4
2020-Jan-21 16:00 175 24.4
2020-Jan-21 15:54 175 25.0
2020-Jan-21 15:49 175 25.0
2020-Jan-21 15:44 175 25.0
2020-Jan-21 15:38 175 25.0
2020-Jan-21 15:33 175 25.0
2020-Jan-21 15:27 175 25.0
2020-Jan-21 15:22 175 0 gusting 3 25.0
2020-Jan-21 15:17 180 25.0
2020-Jan-21 15:12 204 0 gusting 4 25.0
2020-Jan-21 15:06 204 25.0
2020-Jan-21 15:01 192 25.0
2020-Jan-21 14:55 192 25.0
2020-Jan-21 14:50 253 25.6
2020-Jan-21 14:44 254 25.6
2020-Jan-21 14:39 258 25.6
2020-Jan-21 14:33 283 25.6
2020-Jan-21 14:28 253 25.6
2020-Jan-21 14:23 303 25.6
2020-Jan-21 14:17 303 25.6
2020-Jan-21 14:12 306 25.6
2020-Jan-21 14:07 306 26.1
2020-Jan-21 14:02 351 26.1
2020-Jan-21 13:57 351 26.1
2020-Jan-21 13:52 351 26.1
2020-Jan-21 13:47 351 26.1
2020-Jan-21 13:42 351 26.1
2020-Jan-21 13:37 351 26.1
2020-Jan-21 13:32 351 26.7
2020-Jan-21 13:27 352 26.7
2020-Jan-21 13:22 352 26.7
2020-Jan-21 13:17 352 26.7
2020-Jan-21 13:12 352 26.7
2020-Jan-21 13:07 352 0 gusting 5 26.7
2020-Jan-21 13:01 352 0 gusting 3 26.7
2020-Jan-21 12:50 359 0 gusting 4 26.7
2020-Jan-21 12:45 025 0 gusting 6 26.7
2020-Jan-21 12:40 355 0 gusting 5 26.7
2020-Jan-21 12:35 359 0 gusting 5 26.7
2020-Jan-21 12:29 029 0 gusting 5 26.7
2020-Jan-21 12:24 337 1 gusting 6 26.7
2020-Jan-21 12:19 004 1 gusting 6 26.7
2020-Jan-21 12:13 347 1 gusting 5 26.7
2020-Jan-21 12:08 344 0 gusting 4 26.7
2020-Jan-21 12:02 022 0 gusting 4 26.7
2020-Jan-21 11:57 032 0 gusting 6 26.1
2020-Jan-21 11:51 007 0 gusting 6 26.1
2020-Jan-21 11:46 316 0 gusting 5 26.7
2020-Jan-21 11:41 042 0 gusting 5 26.7
2020-Jan-21 11:35 348 1 gusting 5 26.7
2020-Jan-21 11:30 043 1 gusting 6 26.7
2020-Jan-21 11:24 035 1 gusting 6 26.7
2020-Jan-21 11:19 012 0 gusting 3 26.7
2020-Jan-21 11:14 046 26.7
2020-Jan-21 11:08 046 26.7
2020-Jan-21 11:03 046 26.7
2020-Jan-21 10:58 046 26.7
2020-Jan-21 10:52 028 26.7
2020-Jan-21 10:47 028 26.7
2020-Jan-21 10:42 028 26.7
2020-Jan-21 10:37 028 0 gusting 2 26.7
2020-Jan-21 10:32 023 0 gusting 2 26.7
2020-Jan-21 10:27 022 26.7
2020-Jan-21 10:22 022 26.7
2020-Jan-21 10:17 022 26.7
2020-Jan-21 10:12 022 26.7
2020-Jan-21 10:07 022 27.2
2020-Jan-21 10:02 116 27.2
2020-Jan-21 09:57 116 27.2
2020-Jan-21 09:52 070 27.2
2020-Jan-21 09:47 072 27.2
2020-Jan-21 09:42 072 27.8
2020-Jan-21 09:37 072 27.8
2020-Jan-21 09:32 072 27.8
2020-Jan-21 09:27 029 27.8
2020-Jan-21 09:22 029 27.8
2020-Jan-21 09:17 339 27.8
2020-Jan-21 09:11 340 0 gusting 5 27.8
2020-Jan-21 09:06 340 0 gusting 5 27.8
2020-Jan-21 09:01 066 27.8
2020-Jan-21 08:56 066 0 gusting 7 27.8
2020-Jan-21 08:51 054 1 gusting 7 27.8
2020-Jan-21 08:46 016 2 gusting 6 28.3
2020-Jan-21 08:41 014 2 gusting 7 28.3
2020-Jan-21 08:36 052 1 gusting 7 28.3
2020-Jan-21 08:31 018 1 gusting 7 28.3
2020-Jan-21 08:26 075 1 gusting 7 28.9
2020-Jan-21 08:21 097 0 gusting 4 28.9
2020-Jan-21 08:16 074 0 gusting 3 28.9
2020-Jan-21 08:11 048 0 gusting 8 28.9
2020-Jan-21 08:06 058 2 gusting 8 28.9
2020-Jan-21 08:01 093 1 gusting 7 29.4
2020-Jan-21 07:56 121 0 gusting 4 29.4
2020-Jan-21 07:51 100 1 gusting 6 29.4
2020-Jan-21 07:46 113 2 gusting 7 29.4
2020-Jan-21 07:41 168 2 gusting 7 29.4
2020-Jan-21 07:36 109 1 gusting 7 30.0
2020-Jan-21 07:31 122 1 gusting 5 30.0
2020-Jan-21 07:26 051 2 gusting 6 30.0
2020-Jan-21 07:21 345 2 gusting 6 30.0
2020-Jan-21 07:16 343 2 gusting 6 29.4
2020-Jan-21 07:11 013 2 gusting 6 29.4
2020-Jan-21 07:06 339 1 gusting 6 29.4
2020-Jan-21 07:01 312 2 gusting 8 28.9
2020-Jan-21 06:55 353 5 gusting 13 28.9
2020-Jan-21 06:50 357 5 gusting 13 28.9
2020-Jan-21 06:45 020 4 gusting 12 28.9
2020-Jan-21 06:40 007 6 gusting 12 28.9
2020-Jan-21 06:35 041 7 gusting 19 28.9
2020-Jan-21 06:30 28.9
2020-Jan-21 06:25 352 6 gusting 15 29.4
2020-Jan-21 06:20 306 6 gusting 14 30.0
2020-Jan-21 06:15 353 6 gusting 14 30.0
2020-Jan-21 06:10 006 6 gusting 12 30.6
2020-Jan-21 06:05 331 6 gusting 13 30.6
2020-Jan-21 06:00 013 5 gusting 13 31.1
2020-Jan-21 05:55 353 4 gusting 10 31.7
2020-Jan-21 05:45 024 4 gusting 12 32.2
2020-Jan-21 05:40 025 5 gusting 12 32.2
2020-Jan-21 05:35 039 6 gusting 12 32.8
2020-Jan-21 05:30 006 5 gusting 12 32.8
2020-Jan-21 05:25 002 3 gusting 12 32.8
2020-Jan-21 05:20 307 3 gusting 12 33.3
2020-Jan-21 05:15 039 3 gusting 7 33.3
2020-Jan-21 05:10 260 3 gusting 7 33.3
2020-Jan-21 05:05 047 2 gusting 8 33.3
2020-Jan-21 04:59 049 2 gusting 9 33.3
2020-Jan-21 04:54 025 4 gusting 12 33.3
2020-Jan-21 04:49 335 6 gusting 12 32.8
2020-Jan-21 04:44 022 6 gusting 13 33.3
2020-Jan-21 04:39 007 4 gusting 13 33.3
2020-Jan-21 04:34 333 4 gusting 10 33.3
2020-Jan-21 04:29 028 3 gusting 10 33.3
2020-Jan-21 04:24 033 3 gusting 9 33.9
2020-Jan-21 04:19 054 3 gusting 10 33.9
2020-Jan-21 04:14 020 3 gusting 10 33.9
2020-Jan-21 04:09 030 3 gusting 10 33.9
2020-Jan-21 04:04 087 3 gusting 7 34.4
2020-Jan-21 03:59 006 3 gusting 7 34.4
2020-Jan-21 03:54 035 3 gusting 11 33.9
2020-Jan-21 03:49 004 4 gusting 11 33.9
2020-Jan-21 03:44 344 4 gusting 10 33.9
2020-Jan-21 03:38 348 4 gusting 12 33.9
2020-Jan-21 03:33 023 4 gusting 12 33.9
2020-Jan-21 03:28 349 4 gusting 9 33.9
2020-Jan-21 03:23 008 4 gusting 9 33.9
2020-Jan-21 03:18 004 3 gusting 8 33.9
2020-Jan-21 03:13 016 3 gusting 8 33.9
2020-Jan-21 03:08 069 5 gusting 12 33.3
2020-Jan-21 03:03 337 5 gusting 12 33.3
2020-Jan-21 02:58 347 4 gusting 9 33.3
2020-Jan-21 02:53 012 5 gusting 11 33.3
2020-Jan-21 02:48 306 5 gusting 11 33.3
2020-Jan-21 02:43 042 4 gusting 10 33.9
2020-Jan-21 02:38 337 4 gusting 11 33.3
2020-Jan-21 02:32 328 3 gusting 11 33.9
2020-Jan-21 02:27 047 4 gusting 12 33.3
2020-Jan-21 02:22 303 4 gusting 12 33.3
2020-Jan-21 02:17 049 4 gusting 8 33.9
2020-Jan-21 02:11 351 4 gusting 7 33.3
2020-Jan-21 02:06 023 4 gusting 7 33.3
2020-Jan-21 02:00 352 3 gusting 8 33.3
2020-Jan-21 01:55 351 4 gusting 8 33.3
2020-Jan-21 01:49 358 3 gusting 8 33.3
2020-Jan-21 01:44 041 3 gusting 8 33.3
2020-Jan-21 01:39 024 2 gusting 7 33.3
2020-Jan-21 01:33 052 3 gusting 7 33.3
2020-Jan-21 01:28 036 3 gusting 8 33.3
2020-Jan-21 01:22 356 3 gusting 8 33.3
2020-Jan-21 01:17 007 3 gusting 8 33.3
2020-Jan-21 01:12 018 2 gusting 8 33.3
2020-Jan-21 01:07 045 2 gusting 6 33.3
2020-Jan-21 01:01 022 3 gusting 7 33.3
2020-Jan-21 00:56 353 3 gusting 7 33.3
2020-Jan-21 00:50 323 2 gusting 7 33.3
2020-Jan-21 00:45 058 2 gusting 6 32.8
2020-Jan-21 00:40 022 2 gusting 6 32.8
2020-Jan-21 00:35 015 2 gusting 6 32.8
2020-Jan-21 00:30 069 2 gusting 7 32.8
2020-Jan-21 00:25 047 3 gusting 7 32.8
2020-Jan-21 00:19 303 3 gusting 7 32.8
2020-Jan-21 00:14 048 3 gusting 8 32.2
2020-Jan-21 00:09 018 3 gusting 8 32.2
2020-Jan-21 00:04 352 3 gusting 8 32.2
2020-Jan-20 23:59 142 3 gusting 7 31.7
2020-Jan-20 23:54 323 3 gusting 7 31.7
2020-Jan-20 23:49 326 3 gusting 7 31.7
2020-Jan-20 23:44 047 2 gusting 7 31.7
2020-Jan-20 23:39 012 3 gusting 6 31.7
2020-Jan-20 23:34 314 3 gusting 7 31.1
2020-Jan-20 23:29 359 3 gusting 7 31.1
2020-Jan-20 23:24 344 3 gusting 7 31.1
2020-Jan-20 23:19 029 3 gusting 7 31.1
2020-Jan-20 23:14 056 3 gusting 9 31.1
2020-Jan-20 23:09 004 2 gusting 9 30.6
2020-Jan-20 23:04 326 2 gusting 6 30.6
2020-Jan-20 22:59 317 1 gusting 4 30.6
2020-Jan-20 22:54 347 1 gusting 4 30.0
2020-Jan-20 22:49 037 0 gusting 4 29.4
2020-Jan-20 22:44 008 29.4
2020-Jan-20 22:39 008 0 gusting 2 28.9
2020-Jan-20 22:34 008 0 gusting 4 28.3
2020-Jan-20 22:29 006 0 gusting 4 28.3
2020-Jan-20 22:24 345 0 gusting 3 27.8
2020-Jan-20 22:19 344 27.2
2020-Jan-20 22:14 344 27.2
2020-Jan-20 22:08 203 26.7
2020-Jan-20 22:03 203 0 gusting 3 26.7
2020-Jan-20 21:58 202 0 gusting 3 26.7
2020-Jan-20 21:53 197 26.7
2020-Jan-20 21:48 167 26.1
2020-Jan-20 21:43 207 26.1
2020-Jan-20 21:38 231 26.1
2020-Jan-20 21:33 206 26.1
2020-Jan-20 21:28 210 25.6
2020-Jan-20 21:23 232 25.6
2020-Jan-20 21:18 235 25.6
2020-Jan-20 21:13 238 25.6
2020-Jan-20 21:08 247 25.6
2020-Jan-20 21:03 207 0 gusting 6 25.6
2020-Jan-20 20:58 193 0 gusting 6 25.6
2020-Jan-20 20:53 229 1 gusting 7 25.0
2020-Jan-20 20:48 344 2 gusting 7 25.0
2020-Jan-20 20:43 023 2 gusting 6 25.0
2020-Jan-20 20:38 008 2 gusting 7 25.0
2020-Jan-20 20:33 007 2 gusting 7 25.0
2020-Jan-20 20:28 25.0
2020-Jan-20 20:22 034 1 gusting 6 25.0
2020-Jan-20 20:17 002 1 gusting 6 25.0
2020-Jan-20 20:12 346 0 gusting 6 25.0
2020-Jan-20 20:07 349 0 gusting 4 25.0
2020-Jan-20 20:02 324 0 gusting 4 25.0
2020-Jan-20 19:57 352 0 gusting 4 25.0
2020-Jan-20 19:52 358 0 gusting 4 25.0
2020-Jan-20 19:47 303 0 gusting 3 25.0
2020-Jan-20 19:42 299 0 gusting 3 25.0
2020-Jan-20 19:37 322 0 gusting 2 25.6
2020-Jan-20 19:32 308 0 gusting 4 25.6
2020-Jan-20 19:27 303 0 gusting 4 25.6
2020-Jan-20 19:22 346 0 gusting 2 25.6
2020-Jan-20 19:17 318 0 gusting 4 25.6
2020-Jan-20 19:12 343 1 gusting 6 25.6
2020-Jan-20 19:07 297 1 gusting 6 25.6
2020-Jan-20 19:02 324 0 gusting 4 25.6
2020-Jan-20 18:57 304 25.6
2020-Jan-20 18:52 303 0 gusting 6 25.6
2020-Jan-20 18:47 341 1 gusting 6 25.6
2020-Jan-20 18:42 306 1 gusting 6 25.6
2020-Jan-20 18:37 313 1 gusting 6 25.6
2020-Jan-20 18:32 322 1 gusting 6 25.6
2020-Jan-20 18:27 306 1 gusting 6 25.6
2020-Jan-20 18:22 332 0 gusting 6 25.6
2020-Jan-20 18:16 305 0 gusting 6 26.1
2020-Jan-20 18:11 310 1 gusting 6 26.1
2020-Jan-20 18:06 314 1 gusting 6 26.1
2020-Jan-20 18:01 304 1 gusting 6 26.1
2020-Jan-20 17:56 318 0 gusting 4 26.1
2020-Jan-20 17:51 355 1 gusting 7 26.1
2020-Jan-20 17:46 347 1 gusting 7 26.1
2020-Jan-20 17:41 343 1 gusting 6 26.1
2020-Jan-20 17:36 345 1 gusting 6 26.1
2020-Jan-20 17:31 351 2 gusting 8 26.1
2020-Jan-20 17:26 002 2 gusting 8 26.1
2020-Jan-20 17:21 322 2 gusting 7 26.1
2020-Jan-20 17:16 317 3 gusting 11 26.1
2020-Jan-20 17:11 335 1 gusting 11 26.1
2020-Jan-20 17:06 330 0 gusting 4 26.1
2020-Jan-20 17:01 350 0 gusting 4 26.1
2020-Jan-20 16:56 343 0 gusting 5 26.1
2020-Jan-20 16:51 350 1 gusting 7 26.1
2020-Jan-20 16:46 358 2 gusting 9 26.1
2020-Jan-20 16:41 309 1 gusting 9 26.1
2020-Jan-20 16:36 335 1 gusting 7 26.1
2020-Jan-20 16:31 328 2 gusting 7 26.1
2020-Jan-20 16:25 341 2 gusting 7 26.1
2020-Jan-20 16:20 307 2 gusting 9 26.1
2020-Jan-20 16:15 006 2 gusting 9 26.1
2020-Jan-20 16:10 325 3 gusting 7 26.1
2020-Jan-20 16:04 339 3 gusting 11 26.1
2020-Jan-20 15:59 047 3 gusting 11 26.1
2020-Jan-20 15:54 325 3 gusting 9 26.1
2020-Jan-20 15:49 350 4 gusting 11 26.1
2020-Jan-20 15:44 353 4 gusting 11 26.1
2020-Jan-20 15:39 041 3 gusting 9 26.1
2020-Jan-20 15:33 340 4 gusting 10 26.1
2020-Jan-20 15:28 015 5 gusting 12 26.1
2020-Jan-20 15:24 013 4 gusting 12 26.1
2020-Jan-20 15:18 331 4 gusting 11 26.1
2020-Jan-20 15:13 349 5 gusting 12 26.1
2020-Jan-20 15:08 339 4 gusting 12 26.1
2020-Jan-20 15:03 316 3 gusting 9 26.1
2020-Jan-20 14:58 024 3 gusting 11 26.1
2020-Jan-20 14:53 022 5 gusting 16 26.1
2020-Jan-20 14:48 004 5 gusting 16 26.1
2020-Jan-20 14:43 325 5 gusting 13 26.1
2020-Jan-20 14:38 331 4 gusting 11 26.1
2020-Jan-20 14:33 332 4 gusting 10 26.1
2020-Jan-20 14:27 027 4 gusting 10 26.1
2020-Jan-20 14:23 049 5 gusting 10 26.1
2020-Jan-20 14:17 345 5 gusting 12 26.1
2020-Jan-20 14:12 353 4 gusting 12 26.1
2020-Jan-20 14:07 048 3 gusting 9 26.1
2020-Jan-20 14:02 312 3 gusting 9 26.1